Flag for Italy Weather past 2 weeks in Modena, Italy

Now
48 °F

Fog.


Feels Like: 48 °F
Forecast: 49 / 75 °F
Wind: 2 mph from North

Location: Bologna / Borgo Panigale

Current Time: Apr 25, 2015 at 7:06:55 AM

Latest Report: Apr 25, 2015 at 6:20 AM


Visibility: 4 mi

Pressure: 30.01 "Hg

Humidity: 94%

Dew point: 46 °F

Location of ModenaLocation

Historic Weather in Modena — Graph

°F

Modena temperature yesterday

Maximum temperature yesterday: 70 °F (at 2:20 PM)
Minimum temperature yesterday: 48 °F (at 4:50 AM)
Average temperature yesterday: 61 °F

Past Weeks' High & Low Weather Summary

 TemperatureHumidityPressure
High79 °F (Apr 15, 3:50 PM)100% (Apr 11, 2:50 AM)30.45 "Hg (Apr 11, 2:50 AM)
Low39 °F (Apr 20, 4:20 AM)27% (Apr 23, 2:50 PM)29.89 "Hg (Apr 18, 4:20 AM)
Average60 °F61%30.14 "Hg
* Reported Apr 10 5:20 AM — Apr 25 5:50 AM, Modena, Weather by CustomWeather, © 2015

Note: Actual official high and low records may vary slightly from our data, if they occured in-between our weather recording intervals... More about our weather records

Advertising

Modena weather history for previous 24 hours

 ConditionsComfort  
Time TempWeatherWind HumidityBarometerVisibility
5:50 AM
Sat, Apr 25
48 °FFog.No wind100%30.01 "Hg5 mi
5:20 AM48 °FClear.No wind100%30.01 "Hg10 mi
4:50 AM50 °FClear.3 mph94%30.01 "Hg10 mi
4:20 AM50 °FPassing clouds.3 mph88%30.01 "HgN/A
3:50 AM52 °FClear.2 mph94%30.01 "Hg10 mi
3:20 AM52 °FClear.5 mph88%30.01 "Hg10 mi
2:50 AM52 °FClear.2 mph88%30.04 "Hg10 mi
2:20 AM54 °FClear.2 mph88%30.01 "Hg10 mi
1:20 AM52 °FClear.3 mph94%30.04 "Hg10 mi
12:50 AM54 °FClear.1 mph88%30.04 "Hg10 mi
12:20 AM55 °FClear.2 mph82%30.04 "Hg10 mi
11:50 PM
Fri, Apr 24
57 °FClear.6 mph82%30.01 "Hg10 mi
11:20 PM57 °FClear.6 mph82%30.01 "Hg10 mi
10:50 PM57 °FClear.5 mph82%30.01 "Hg10 mi
10:20 PM59 °FClear.7 mph77%30.01 "Hg10 mi
9:50 PM61 °FClear.9 mph77%30.01 "Hg10 mi
9:20 PM61 °FClear.9 mph77%30.01 "Hg10 mi
8:50 PM63 °FSunny.8 mph64%29.98 "Hg10 mi
8:20 PM64 °FSunny.7 mph60%29.98 "Hg10 mi
7:50 PM64 °FSunny.6 mph60%29.98 "Hg10 mi
7:20 PM66 °FSunny.8 mph52%29.98 "Hg10 mi
6:50 PM68 °FSunny.8 mph53%29.98 "Hg10 mi
6:20 PM70 °FPassing clouds.6 mph50%29.98 "HgN/A
5:50 PM70 °FPassing clouds.6 mph50%29.98 "HgN/A
5:20 PM70 °FPassing clouds.6 mph46%29.98 "HgN/A
4:50 PM70 °FPassing clouds.6 mph46%29.98 "HgN/A
4:20 PM70 °FPassing clouds.6 mph50%29.98 "HgN/A
3:50 PM70 °FPassing clouds.6 mph46%29.98 "HgN/A
3:20 PM70 °FPassing clouds.8 mph50%29.98 "HgN/A
2:50 PM70 °FPassing clouds.3 mph50%29.98 "HgN/A
2:20 PM70 °FPassing clouds.5 mph50%29.98 "HgN/A
1:50 PM68 °FPassing clouds.3 mph53%30.01 "HgN/A
1:20 PM68 °FPassing clouds.5 mph49%30.01 "HgN/A
12:50 PM68 °FPassing clouds.3 mph56%30.01 "HgN/A
12:20 PM66 °FPassing clouds.6 mph60%30.01 "HgN/A
11:50 AM64 °FPassing clouds.6 mph64%30.01 "HgN/A
11:20 AM64 °FPassing clouds.7 mph60%30.01 "HgN/A
10:50 AM64 °FPassing clouds.7 mph56%30.01 "HgN/A
10:20 AM63 °FPassing clouds.8 mph59%30.01 "HgN/A
9:50 AM61 °FPassing clouds.6 mph59%30.01 "HgN/A
9:20 AM61 °FPassing clouds.8 mph55%30.01 "HgN/A
8:50 AM61 °FPassing clouds.7 mph55%29.98 "HgN/A
8:20 AM59 °FSunny.6 mph63%29.98 "Hg10 mi
7:50 AM55 °FSunny.7 mph67%29.95 "Hg10 mi
7:20 AM52 °FPassing clouds.6 mph72%29.95 "HgN/A
Weather by CustomWeather, © 2015

See weather overviewHow to use our weather pages